Home > Weather > Canton > Past weeks

Flag for USA Weather for the Past 2 Weeks in Canton, Ohio, USA

Now
43 °F

Fog.


Feels Like: 39 °F
Forecast: 39 / 64 °F
Wind: 6 mph from Southeast

Location: Akron-Canton Regional Airport

Current Time: Apr 30, 2016 at 9:42:59 AM

Latest Report: Apr 30, 2016 at 8:58 AM


Visibility: 3 mi

Pressure: 30.13 "Hg

Humidity: 93%

Dew Point: 41 °F

Location of CantonLocation

Historic Weather in Canton — Graph

°F

Canton Temperature Yesterday

Maximum temperature yesterday: 51 °F (at 12:51 PM)
Minimum temperature yesterday: 42 °F (at 11:51 PM)
Average temperature yesterday: 47 °F

High & Low Weather Summary for the Past Weeks

 TemperatureHumidityPressure
High80 °F (Apr 18, 3:51 PM)96% (Apr 30, 2:51 AM)30.44 "Hg (Apr 30, 2:51 AM)
Low35 °F (Apr 30, 4:53 AM)19% (Apr 18, 1:51 PM)29.68 "Hg (Apr 26, 2:51 AM)
Average56 °F56%30.08 "Hg
* Reported Apr 15 7:51 AM — Apr 30 7:51 AM, Canton, Weather by CustomWeather, © 2016

Note: Actual official high and low records may vary slightly from our data, if they occured in-between our weather recording intervals... More about our weather records

Advertising

Canton Weather History for the Previous 24 Hours

Scroll right to see more
 ConditionsComfort  
Time TempWeatherWind HumidityBarometerVisibility
7:51 AM
Sat, Apr 30
40 °FFog.8 mph93%30.15 "Hg1 mi
6:51 AM39 °FFog.7 mph89%30.15 "Hg2 mi
5:51 AM37 °FFog.8 mph93%30.14 "Hg3 mi
4:53 AM35 °FFog.8 mph92%30.10 "Hg1 mi
4:01 AM36 °FFog.5 mph92%30.12 "Hg2 mi
3:58 AM37 °FFog.5 mph93%30.13 "Hg1 mi
2:51 AM37 °FFog.No wind96%30.14 "Hg3 mi
1:51 AM40 °FFog.No wind89%30.14 "Hg5 mi
12:51 AM39 °FFog.5 mph89%30.14 "Hg6 mi
11:51 PM
Fri, Apr 29
42 °FFog.5 mph85%30.16 "Hg6 mi
10:51 PM45 °FOvercast.6 mph80%30.16 "Hg9 mi
9:51 PM45 °FOvercast.7 mph82%30.15 "Hg9 mi
8:51 PM46 °FOvercast.8 mph83%30.12 "Hg10 mi
7:51 PM47 °FOvercast.8 mph80%30.11 "Hg10 mi
6:51 PM47 °FOvercast.9 mph83%30.09 "Hg10 mi
5:51 PM48 °FOvercast.9 mph80%30.07 "Hg10 mi
4:51 PM49 °FOvercast.8 mph80%30.06 "Hg10 mi
3:51 PM49 °FMostly cloudy.13 mph84%30.04 "Hg10 mi
2:51 PM51 °FFog.10 mph86%30.03 "Hg3 mi
1:51 PM51 °FFog.8 mph89%30.01 "Hg2 mi
12:51 PM51 °FDrizzle. Fog.8 mph86%30.01 "Hg2 mi
11:51 AM50 °FFog.12 mph89%30.01 "Hg2 mi
10:51 AM50 °FFog.7 mph89%29.99 "Hg2 mi
9:51 AM48 °FFog.5 mph93%30.00 "Hg2 mi
Weather by CustomWeather, © 2016

See weather overviewHow to use our weather pages